{"data":{"norad_id":47791,"intl_designator":"2021-018E","name":"STARLINK-2322","alt_names":[],"object_type":"PAYLOAD","status":"ACTIVE","operator":null,"country":"US","launch_date":"2021-03-11","launch_site_code":"AFETR","launch_vehicle":null,"mission":null,"orbit_class":"UNKNOWN","rcs_meters":null,"size_class":null,"mass_kg":null,"dimensions":null,"purposes":["comms"],"wikipedia_slug":null,"has_3d_model":false,"image_url":null,"decayed_at":null,"tle_current":{"epoch":"2026-05-24T23:31:02.470944Z","epoch_age_seconds":76804,"freshness":"FRESH","line1":"1 47791U 21018E   26144.97988971 -.00001299  00000+0 -30078-4 0  9999","line2":"2 47791  53.1582 248.0930 0002213  81.3091 278.8161 15.31698236288421","mean_motion":15.31698236,"eccentricity":0.0002213,"inclination_deg":53.1582,"raan_deg":248.093,"arg_perigee_deg":81.3091,"mean_anomaly_deg":278.8161,"bstar":-3.0078e-5,"rev_number":28842,"period_min":94.013296232588,"perigee_km":469.22959598018,"apogee_km":472.26091126563,"semimajor_km":6848.8822536229,"source":"CELESTRAK","updated_at":"2026-05-25T13:38:16.598204Z"}}}